Year,Month,Day,Hour,Minute,Value (Times are PST for temperature in C)
2015,08,10,00,00,15.70
2015,08,10,00,01,15.70
2015,08,10,00,02,15.70
2015,08,10,00,03,15.70
2015,08,10,00,04,15.70
2015,08,10,00,05,15.70
2015,08,10,00,06,15.70
2015,08,10,00,07,15.70
2015,08,10,00,08,15.70
2015,08,10,00,09,15.70
2015,08,10,00,10,15.70
2015,08,10,00,11,15.70
2015,08,10,00,12,15.70
2015,08,10,00,13,15.70
2015,08,10,00,14,15.60
2015,08,10,00,15,15.60
2015,08,10,00,16,15.60
2015,08,10,00,17,15.60
2015,08,10,00,18,15.60
2015,08,10,00,19,15.60
2015,08,10,00,20,15.60
2015,08,10,00,21,15.60
2015,08,10,00,22,15.60
2015,08,10,00,23,15.60
2015,08,10,00,24,15.60
2015,08,10,00,25,15.50
2015,08,10,00,26,15.50
2015,08,10,00,27,15.50
2015,08,10,00,28,15.50
2015,08,10,00,29,15.50
2015,08,10,00,30,15.50
2015,08,10,00,31,15.50
2015,08,10,00,32,15.50
2015,08,10,00,33,15.40
2015,08,10,00,34,15.40
2015,08,10,00,35,15.40
2015,08,10,00,36,15.40
2015,08,10,00,37,15.40
2015,08,10,00,38,15.40
2015,08,10,00,39,15.40
2015,08,10,00,40,15.40
2015,08,10,00,41,15.40
2015,08,10,00,42,15.40
2015,08,10,00,43,15.30
2015,08,10,00,44,15.30
2015,08,10,00,45,15.30
2015,08,10,00,46,15.30
2015,08,10,00,47,15.30
2015,08,10,00,48,15.30
2015,08,10,00,49,15.30
2015,08,10,00,50,15.30
2015,08,10,00,51,15.30
2015,08,10,00,52,15.30
2015,08,10,00,53,15.30
2015,08,10,00,54,15.30
2015,08,10,00,55,15.30
2015,08,10,00,56,15.30
2015,08,10,00,57,15.30
2015,08,10,00,58,15.30
2015,08,10,00,59,15.30
2015,08,10,01,00,15.30
2015,08,10,01,01,15.30
2015,08,10,01,02,15.30
2015,08,10,01,03,15.30
2015,08,10,01,04,15.30
2015,08,10,01,05,15.30
2015,08,10,01,06,15.30
2015,08,10,01,07,15.30
2015,08,10,01,08,15.30
2015,08,10,01,09,15.30
2015,08,10,01,10,15.30
2015,08,10,01,11,15.30
2015,08,10,01,12,15.30
2015,08,10,01,13,15.30
2015,08,10,01,14,15.30
2015,08,10,01,15,15.30
2015,08,10,01,16,15.30
2015,08,10,01,17,15.30
2015,08,10,01,18,15.30
2015,08,10,01,19,15.30
2015,08,10,01,20,15.30
2015,08,10,01,21,15.30
2015,08,10,01,22,15.40
2015,08,10,01,23,15.40
2015,08,10,01,24,15.40
2015,08,10,01,25,15.40
2015,08,10,01,26,15.40
2015,08,10,01,27,15.40
2015,08,10,01,28,15.40
2015,08,10,01,29,15.40
2015,08,10,01,30,15.40
2015,08,10,01,31,15.40
2015,08,10,01,32,15.40
2015,08,10,01,33,15.40
2015,08,10,01,34,15.40
2015,08,10,01,35,15.40
2015,08,10,01,36,15.30
2015,08,10,01,37,15.30
2015,08,10,01,38,15.30
2015,08,10,01,39,15.30
2015,08,10,01,40,15.30
2015,08,10,01,41,15.30
2015,08,10,01,42,15.20
2015,08,10,01,43,15.20
2015,08,10,01,44,15.20
2015,08,10,01,45,15.20
2015,08,10,01,46,15.20
2015,08,10,01,47,15.20
2015,08,10,01,48,15.20
2015,08,10,01,49,15.20
2015,08,10,01,50,15.20
2015,08,10,01,51,15.20
2015,08,10,01,52,15.20
2015,08,10,01,53,15.20
2015,08,10,01,54,15.20
2015,08,10,01,55,15.10
2015,08,10,01,56,15.10
2015,08,10,01,57,15.20
2015,08,10,01,58,15.20
2015,08,10,01,59,15.10
2015,08,10,02,00,15.10
2015,08,10,02,01,15.10
2015,08,10,02,02,15.10
2015,08,10,02,03,15.10
2015,08,10,02,04,15.10
2015,08,10,02,05,15.00
2015,08,10,02,06,15.00
2015,08,10,02,07,15.00
2015,08,10,02,08,15.00
2015,08,10,02,09,15.00
2015,08,10,02,10,15.00
2015,08,10,02,11,14.90
2015,08,10,02,12,14.90
2015,08,10,02,13,14.90
2015,08,10,02,14,14.90
2015,08,10,02,15,14.90
2015,08,10,02,16,14.90
2015,08,10,02,17,14.90
2015,08,10,02,18,14.90
2015,08,10,02,19,14.80
2015,08,10,02,20,14.80
2015,08,10,02,21,14.80
2015,08,10,02,22,14.80
2015,08,10,02,23,14.80
2015,08,10,02,24,14.80
2015,08,10,02,25,14.80
2015,08,10,02,26,14.80
2015,08,10,02,27,14.80
2015,08,10,02,28,14.80
2015,08,10,02,29,14.80
2015,08,10,02,30,14.80
2015,08,10,02,31,14.80
2015,08,10,02,32,14.80
2015,08,10,02,33,14.80
2015,08,10,02,34,14.80
2015,08,10,02,35,14.70
2015,08,10,02,36,14.70
2015,08,10,02,37,14.70
2015,08,10,02,38,14.70
2015,08,10,02,39,14.70
2015,08,10,02,40,14.70
2015,08,10,02,41,14.70
2015,08,10,02,42,14.70
2015,08,10,02,43,14.70
2015,08,10,02,44,14.70
2015,08,10,02,45,14.70
2015,08,10,02,46,14.70
2015,08,10,02,47,14.70
2015,08,10,02,48,14.70
2015,08,10,02,49,14.60
2015,08,10,02,50,14.60
2015,08,10,02,51,14.60
2015,08,10,02,52,14.50
2015,08,10,02,53,14.50
2015,08,10,02,54,14.50
2015,08,10,02,55,14.40
2015,08,10,02,56,14.40
2015,08,10,02,57,14.40
2015,08,10,02,58,14.30
2015,08,10,02,59,14.30
2015,08,10,03,00,14.30
2015,08,10,03,01,14.30
2015,08,10,03,02,14.30
2015,08,10,03,03,14.30
2015,08,10,03,04,14.30
2015,08,10,03,05,14.30
2015,08,10,03,06,14.30
2015,08,10,03,07,14.20
2015,08,10,03,08,14.20
2015,08,10,03,09,14.20
2015,08,10,03,10,14.20
2015,08,10,03,11,14.20
2015,08,10,03,12,14.20
2015,08,10,03,13,14.20
2015,08,10,03,14,14.20
2015,08,10,03,15,14.20
2015,08,10,03,16,14.20
2015,08,10,03,17,14.20
2015,08,10,03,18,14.20
2015,08,10,03,19,14.30
2015,08,10,03,20,14.30
2015,08,10,03,21,14.30
2015,08,10,03,22,14.30
2015,08,10,03,23,14.30
2015,08,10,03,24,14.30
2015,08,10,03,25,14.30
2015,08,10,03,26,14.30
2015,08,10,03,27,14.30
2015,08,10,03,28,14.30
2015,08,10,03,29,14.30
2015,08,10,03,30,14.30
2015,08,10,03,31,14.30
2015,08,10,03,32,14.30
2015,08,10,03,33,14.30
2015,08,10,03,34,14.30
2015,08,10,03,35,14.30
2015,08,10,03,36,14.30
2015,08,10,03,37,14.30
2015,08,10,03,38,14.30
2015,08,10,03,39,14.30
2015,08,10,03,40,14.30
2015,08,10,03,41,14.30
2015,08,10,03,42,14.30
2015,08,10,03,43,14.30
2015,08,10,03,44,14.30
2015,08,10,03,45,14.30
2015,08,10,03,46,14.20
2015,08,10,03,47,14.20
2015,08,10,03,48,14.20
2015,08,10,03,49,14.20
2015,08,10,03,50,14.20
2015,08,10,03,51,14.20
2015,08,10,03,52,14.20
2015,08,10,03,53,14.20
2015,08,10,03,54,14.20
2015,08,10,03,55,14.20
2015,08,10,03,56,14.20
2015,08,10,03,57,14.20
2015,08,10,03,58,14.20
2015,08,10,03,59,14.20
2015,08,10,04,00,14.20
2015,08,10,04,01,14.20
2015,08,10,04,02,14.20
2015,08,10,04,03,14.20
2015,08,10,04,04,14.20
2015,08,10,04,05,14.20
2015,08,10,04,06,14.20
2015,08,10,04,07,14.20
2015,08,10,04,08,14.20
2015,08,10,04,09,14.20
2015,08,10,04,10,14.20
2015,08,10,04,11,14.20
2015,08,10,04,12,14.20
2015,08,10,04,13,14.20
2015,08,10,04,14,14.10
2015,08,10,04,15,14.10
2015,08,10,04,16,14.10
2015,08,10,04,17,14.00
2015,08,10,04,18,14.00
2015,08,10,04,19,13.90
2015,08,10,04,20,13.90
2015,08,10,04,21,13.90
2015,08,10,04,22,13.90
2015,08,10,04,23,13.80
2015,08,10,04,24,13.80
2015,08,10,04,25,13.80
2015,08,10,04,26,13.80
2015,08,10,04,27,13.80
2015,08,10,04,28,13.80
2015,08,10,04,29,13.80
2015,08,10,04,30,13.80
2015,08,10,04,31,13.80
2015,08,10,04,32,13.80
2015,08,10,04,33,13.80
2015,08,10,04,34,13.80
2015,08,10,04,35,13.70
2015,08,10,04,36,13.70
2015,08,10,04,37,13.70
2015,08,10,04,38,13.70
2015,08,10,04,39,13.70
2015,08,10,04,40,13.70
2015,08,10,04,41,13.70
2015,08,10,04,42,13.70
2015,08,10,04,43,13.70
2015,08,10,04,44,13.70
2015,08,10,04,45,13.70
2015,08,10,04,46,13.70
2015,08,10,04,47,13.70
2015,08,10,04,48,13.70
2015,08,10,04,49,13.70
2015,08,10,04,50,13.70
2015,08,10,04,51,13.70
2015,08,10,04,52,13.70
2015,08,10,04,53,13.70
2015,08,10,04,54,13.70
2015,08,10,04,55,13.70
2015,08,10,04,56,13.70
2015,08,10,04,57,13.70
2015,08,10,04,58,13.70
2015,08,10,04,59,13.70
2015,08,10,05,00,13.70
2015,08,10,05,01,13.70
2015,08,10,05,02,13.70
2015,08,10,05,03,13.70
2015,08,10,05,04,13.60
2015,08,10,05,05,13.60
2015,08,10,05,06,13.60
2015,08,10,05,07,13.60
2015,08,10,05,08,13.60
2015,08,10,05,09,13.60
2015,08,10,05,10,13.60
2015,08,10,05,11,13.60
2015,08,10,05,12,13.60
2015,08,10,05,13,13.60
2015,08,10,05,14,13.60
2015,08,10,05,15,13.60
2015,08,10,05,16,13.60
2015,08,10,05,17,13.60
2015,08,10,05,18,13.60
2015,08,10,05,19,13.60
2015,08,10,05,20,13.60
2015,08,10,05,21,13.60
2015,08,10,05,22,13.60
2015,08,10,05,23,13.60
2015,08,10,05,24,13.60
2015,08,10,05,25,13.60
2015,08,10,05,26,13.60
2015,08,10,05,27,13.60
2015,08,10,05,28,13.60
2015,08,10,05,29,13.60
2015,08,10,05,30,13.60
2015,08,10,05,31,13.60
2015,08,10,05,32,13.60
2015,08,10,05,33,13.60
2015,08,10,05,34,13.60
2015,08,10,05,35,13.60
2015,08,10,05,36,13.60
2015,08,10,05,37,13.60
2015,08,10,05,38,13.60
2015,08,10,05,39,13.60
2015,08,10,05,40,13.60
2015,08,10,05,41,13.50
2015,08,10,05,42,13.50
2015,08,10,05,43,13.50
2015,08,10,05,44,13.50
2015,08,10,05,45,13.50
2015,08,10,05,46,13.50
2015,08,10,05,47,13.50
2015,08,10,05,48,13.40
2015,08,10,05,49,13.40
2015,08,10,05,50,13.40
2015,08,10,05,51,13.40
2015,08,10,05,52,13.40
2015,08,10,05,53,13.40
2015,08,10,05,54,13.40
2015,08,10,05,55,13.40
2015,08,10,05,56,13.40
2015,08,10,05,57,13.40
2015,08,10,05,58,13.40
2015,08,10,05,59,13.40
2015,08,10,06,00,13.40
2015,08,10,06,01,13.40
2015,08,10,06,02,13.40
2015,08,10,06,03,13.40
2015,08,10,06,04,13.40
2015,08,10,06,05,13.40
2015,08,10,06,06,13.40
2015,08,10,06,07,13.40
2015,08,10,06,08,13.40
2015,08,10,06,09,13.40
2015,08,10,06,10,13.40
2015,08,10,06,11,13.40
2015,08,10,06,12,13.40
2015,08,10,06,13,13.40
2015,08,10,06,14,13.40
2015,08,10,06,15,13.40
2015,08,10,06,16,13.40
2015,08,10,06,17,13.50
2015,08,10,06,18,13.50
2015,08,10,06,19,13.50
2015,08,10,06,20,13.50
2015,08,10,06,21,13.50
2015,08,10,06,22,13.50
2015,08,10,06,23,13.60
2015,08,10,06,24,13.60
2015,08,10,06,25,13.60
2015,08,10,06,26,13.60
2015,08,10,06,27,13.60
2015,08,10,06,28,13.60
2015,08,10,06,29,13.60
2015,08,10,06,30,13.60
2015,08,10,06,31,13.60
2015,08,10,06,32,13.60
2015,08,10,06,33,13.60
2015,08,10,06,34,13.60
2015,08,10,06,35,13.60
2015,08,10,06,36,13.50
2015,08,10,06,37,13.50
2015,08,10,06,38,13.50
2015,08,10,06,39,13.40
2015,08,10,06,40,13.40
2015,08,10,06,41,13.40
2015,08,10,06,42,13.40
2015,08,10,06,43,13.40
2015,08,10,06,44,13.40
2015,08,10,06,45,13.40
2015,08,10,06,46,13.40
2015,08,10,06,47,13.40
2015,08,10,06,48,13.40
2015,08,10,06,49,13.40
2015,08,10,06,50,13.40
2015,08,10,06,51,13.40
2015,08,10,06,52,13.40
2015,08,10,06,53,13.40
2015,08,10,06,54,13.40
2015,08,10,06,55,13.40
2015,08,10,06,56,13.40
2015,08,10,06,57,13.40
2015,08,10,06,58,13.40
2015,08,10,06,59,13.40
2015,08,10,07,00,13.40
2015,08,10,07,01,13.40
2015,08,10,07,02,13.40
2015,08,10,07,03,13.40
2015,08,10,07,04,13.40
2015,08,10,07,05,13.40
2015,08,10,07,06,13.40
2015,08,10,07,07,13.40
2015,08,10,07,08,13.40
2015,08,10,07,09,13.40
2015,08,10,07,10,13.40
2015,08,10,07,11,13.40
2015,08,10,07,12,13.40
2015,08,10,07,13,13.50
2015,08,10,07,14,13.50
2015,08,10,07,15,13.50
2015,08,10,07,16,13.50
2015,08,10,07,17,13.50
2015,08,10,07,18,13.50
2015,08,10,07,19,13.50
2015,08,10,07,20,13.50
2015,08,10,07,21,13.50
2015,08,10,07,22,13.60
2015,08,10,07,23,13.60
2015,08,10,07,24,13.60
2015,08,10,07,25,13.60
2015,08,10,07,26,13.60
2015,08,10,07,27,13.60
2015,08,10,07,28,13.60
2015,08,10,07,29,13.70
2015,08,10,07,30,13.70
2015,08,10,07,31,13.70
2015,08,10,07,32,13.70
2015,08,10,07,33,13.80
2015,08,10,07,34,13.80
2015,08,10,07,35,13.80
2015,08,10,07,36,13.80
2015,08,10,07,37,13.80
2015,08,10,07,38,13.90
2015,08,10,07,39,13.90
2015,08,10,07,40,13.90
2015,08,10,07,41,13.90
2015,08,10,07,42,13.90
2015,08,10,07,43,13.90
2015,08,10,07,44,14.00
2015,08,10,07,45,13.90
2015,08,10,07,46,13.90
2015,08,10,07,47,13.90
2015,08,10,07,48,13.90
2015,08,10,07,49,13.90
2015,08,10,07,50,13.90
2015,08,10,07,51,13.90
2015,08,10,07,52,13.90
2015,08,10,07,53,13.90
2015,08,10,07,54,13.90
2015,08,10,07,55,13.90
2015,08,10,07,56,14.00
2015,08,10,07,57,14.00
2015,08,10,07,58,14.00
2015,08,10,07,59,14.00
2015,08,10,08,00,14.00
2015,08,10,08,01,14.10
2015,08,10,08,02,14.10
2015,08,10,08,03,14.10
2015,08,10,08,04,14.10
2015,08,10,08,05,14.10
2015,08,10,08,06,14.10
2015,08,10,08,07,14.20
2015,08,10,08,08,14.20
2015,08,10,08,09,14.20
2015,08,10,08,10,14.20
2015,08,10,08,11,14.20
2015,08,10,08,12,14.30
2015,08,10,08,13,14.30
2015,08,10,08,14,14.30
2015,08,10,08,15,14.30
2015,08,10,08,16,14.30
2015,08,10,08,17,14.30
2015,08,10,08,18,14.30
2015,08,10,08,19,14.30
2015,08,10,08,20,14.30
2015,08,10,08,21,14.30
2015,08,10,08,22,14.30
2015,08,10,08,23,14.30
2015,08,10,08,24,14.30
2015,08,10,08,25,14.30
2015,08,10,08,26,14.30
2015,08,10,08,27,14.30
2015,08,10,08,28,14.30
2015,08,10,08,29,14.30
2015,08,10,08,30,14.30
2015,08,10,08,31,14.30
2015,08,10,08,32,14.30
2015,08,10,08,33,14.30
2015,08,10,08,34,14.30
2015,08,10,08,35,14.30
2015,08,10,08,36,14.30
2015,08,10,08,37,14.40
2015,08,10,08,38,14.40
2015,08,10,08,39,14.40
2015,08,10,08,40,14.40
2015,08,10,08,41,14.40
2015,08,10,08,42,14.40
2015,08,10,08,43,14.40
2015,08,10,08,44,14.50
2015,08,10,08,45,14.50
2015,08,10,08,46,14.50
2015,08,10,08,47,14.50
2015,08,10,08,48,14.50
2015,08,10,08,49,14.60
2015,08,10,08,50,14.60
2015,08,10,08,51,14.60
2015,08,10,08,52,14.60
2015,08,10,08,53,14.70
2015,08,10,08,54,14.70
2015,08,10,08,55,14.70
2015,08,10,08,56,14.70
2015,08,10,08,57,14.60
2015,08,10,08,58,14.60
2015,08,10,08,59,14.70
2015,08,10,09,00,14.70
2015,08,10,09,01,14.70
2015,08,10,09,02,14.70
2015,08,10,09,03,14.70
2015,08,10,09,04,14.70
2015,08,10,09,05,14.70
2015,08,10,09,06,14.70
2015,08,10,09,07,14.70
2015,08,10,09,08,14.80
2015,08,10,09,09,14.80
2015,08,10,09,10,14.80
2015,08,10,09,11,14.80
2015,08,10,09,12,14.90
2015,08,10,09,13,14.90
2015,08,10,09,14,15.00
2015,08,10,09,15,15.00
2015,08,10,09,16,15.10
2015,08,10,09,17,15.20
2015,08,10,09,18,15.30
2015,08,10,09,19,15.30
2015,08,10,09,20,15.40
2015,08,10,09,21,15.50
2015,08,10,09,22,15.50
2015,08,10,09,23,15.60
2015,08,10,09,24,15.70
2015,08,10,09,25,15.70
2015,08,10,09,26,15.70
2015,08,10,09,27,15.70
2015,08,10,09,28,15.70
2015,08,10,09,29,15.70
2015,08,10,09,30,15.80
2015,08,10,09,31,15.80
2015,08,10,09,32,15.80
2015,08,10,09,33,15.80
2015,08,10,09,34,15.80
2015,08,10,09,35,15.80
2015,08,10,09,36,15.80
2015,08,10,09,37,15.80
2015,08,10,09,38,15.80
2015,08,10,09,39,15.80
2015,08,10,09,40,15.90
2015,08,10,09,41,15.90
2015,08,10,09,42,16.00
2015,08,10,09,43,16.00
2015,08,10,09,44,16.00
2015,08,10,09,45,16.10
2015,08,10,09,46,16.10
2015,08,10,09,47,16.20
2015,08,10,09,48,16.30
2015,08,10,09,49,16.30
2015,08,10,09,50,16.40
2015,08,10,09,51,16.40
2015,08,10,09,52,16.50
2015,08,10,09,53,16.50
2015,08,10,09,54,16.60
2015,08,10,09,55,16.60
2015,08,10,09,56,16.60
2015,08,10,09,57,16.60
2015,08,10,09,58,16.60
2015,08,10,09,59,16.60
2015,08,10,10,00,16.60
2015,08,10,10,01,16.60
2015,08,10,10,02,16.50
2015,08,10,10,03,16.50
2015,08,10,10,04,16.50
2015,08,10,10,05,16.50
2015,08,10,10,06,16.50
2015,08,10,10,07,16.50
2015,08,10,10,08,16.50
2015,08,10,10,09,16.50
2015,08,10,10,10,16.50
2015,08,10,10,11,16.60
2015,08,10,10,12,16.60
2015,08,10,10,13,16.60
2015,08,10,10,14,16.60
2015,08,10,10,15,16.60
2015,08,10,10,16,16.70
2015,08,10,10,17,16.70
2015,08,10,10,18,16.80
2015,08,10,10,19,16.80
2015,08,10,10,20,16.80
2015,08,10,10,21,16.80
2015,08,10,10,22,16.80
2015,08,10,10,23,16.80
2015,08,10,10,24,16.80
2015,08,10,10,25,16.90
2015,08,10,10,26,16.90
2015,08,10,10,27,16.90
2015,08,10,10,28,17.00
2015,08,10,10,29,17.00
2015,08,10,10,30,17.10
2015,08,10,10,31,17.10
2015,08,10,10,32,17.20
2015,08,10,10,33,17.30
2015,08,10,10,34,17.40
2015,08,10,10,35,17.50
2015,08,10,10,36,17.60
2015,08,10,10,37,17.80
2015,08,10,10,38,17.90
2015,08,10,10,39,18.10
2015,08,10,10,40,18.20
2015,08,10,10,41,18.30
2015,08,10,10,42,18.40
2015,08,10,10,43,18.40
2015,08,10,10,44,18.40
2015,08,10,10,45,18.40
2015,08,10,10,46,18.40
2015,08,10,10,47,18.30
2015,08,10,10,48,18.30
2015,08,10,10,49,18.20
2015,08,10,10,50,18.20
2015,08,10,10,51,18.30
2015,08,10,10,52,18.30
2015,08,10,10,53,18.40
2015,08,10,10,54,18.50
2015,08,10,10,55,18.70
2015,08,10,10,56,18.70
2015,08,10,10,57,18.70
2015,08,10,10,58,18.70
2015,08,10,10,59,18.70
2015,08,10,11,00,18.70
2015,08,10,11,01,18.80
2015,08,10,11,02,18.80
2015,08,10,11,03,18.90
2015,08,10,11,04,19.00
2015,08,10,11,05,19.00
2015,08,10,11,06,19.10
2015,08,10,11,07,19.10
2015,08,10,11,08,19.10
2015,08,10,11,09,19.00
2015,08,10,11,10,19.00
2015,08,10,11,11,19.00
2015,08,10,11,12,19.10
2015,08,10,11,13,19.10
2015,08,10,11,14,19.10
2015,08,10,11,15,19.10
2015,08,10,11,16,19.10
2015,08,10,11,17,19.20
2015,08,10,11,18,19.10
2015,08,10,11,19,19.10
2015,08,10,11,20,19.10
2015,08,10,11,21,19.10
2015,08,10,11,22,19.00
2015,08,10,11,23,19.00
2015,08,10,11,24,19.00
2015,08,10,11,25,19.00
2015,08,10,11,26,18.90
2015,08,10,11,27,18.90
2015,08,10,11,28,18.80
2015,08,10,11,29,18.80
2015,08,10,11,30,18.70
2015,08,10,11,31,18.70
2015,08,10,11,32,18.70
2015,08,10,11,33,18.70
2015,08,10,11,34,18.70
2015,08,10,11,35,18.70
2015,08,10,11,36,18.70
2015,08,10,11,37,18.70
2015,08,10,11,38,18.70
2015,08,10,11,46,18.70
2015,08,10,11,47,18.70
2015,08,10,11,48,18.70
2015,08,10,11,49,18.70
2015,08,10,11,50,18.70
2015,08,10,11,51,18.70
2015,08,10,11,52,18.70
2015,08,10,11,53,18.70
2015,08,10,11,54,18.70
2015,08,10,11,55,18.70
2015,08,10,11,56,18.70
2015,08,10,11,57,18.70
2015,08,10,11,58,18.70
2015,08,10,11,59,18.70
2015,08,10,12,00,18.70
2015,08,10,12,01,18.70
2015,08,10,12,02,18.80
2015,08,10,12,03,18.80
2015,08,10,12,04,18.80
2015,08,10,12,05,18.80
2015,08,10,12,06,18.90
2015,08,10,12,07,18.90
2015,08,10,12,08,18.90
2015,08,10,12,09,18.90
2015,08,10,12,10,18.90
2015,08,10,12,11,18.90
2015,08,10,12,12,18.90
2015,08,10,12,13,18.80
2015,08,10,12,14,18.80
2015,08,10,12,15,18.80
2015,08,10,12,16,18.80
2015,08,10,12,17,18.80
2015,08,10,12,18,18.80
2015,08,10,12,19,18.90
2015,08,10,12,20,18.90
2015,08,10,12,21,18.90
2015,08,10,12,22,18.90
2015,08,10,12,23,18.90
2015,08,10,12,24,18.90
2015,08,10,12,25,19.00
2015,08,10,12,26,19.00
2015,08,10,12,27,19.00
2015,08,10,12,28,19.00
2015,08,10,12,29,19.00
2015,08,10,12,30,19.00
2015,08,10,12,31,19.10
2015,08,10,12,32,19.10
2015,08,10,12,33,19.10
2015,08,10,12,34,19.10
2015,08,10,12,35,19.20
2015,08,10,12,36,19.20
2015,08,10,12,37,19.20
2015,08,10,12,38,19.30
2015,08,10,12,39,19.30
2015,08,10,12,40,19.30
2015,08,10,12,41,19.40
2015,08,10,12,42,19.40
2015,08,10,12,43,19.40
2015,08,10,12,44,19.40
2015,08,10,12,45,19.40
2015,08,10,12,46,19.40
2015,08,10,12,47,19.40
2015,08,10,12,48,19.40
2015,08,10,12,49,19.40
2015,08,10,12,50,19.40
2015,08,10,12,51,19.40
2015,08,10,12,52,19.40
2015,08,10,12,53,19.40
2015,08,10,12,54,19.40
2015,08,10,12,55,19.40
2015,08,10,12,56,19.40
2015,08,10,12,57,19.40
2015,08,10,12,58,19.40
2015,08,10,12,59,19.40
2015,08,10,13,00,19.50
2015,08,10,13,01,19.50
2015,08,10,13,02,19.40
2015,08,10,13,03,19.40
2015,08,10,13,04,19.40
2015,08,10,13,05,19.40
2015,08,10,13,06,19.40
2015,08,10,13,07,19.40
2015,08,10,13,08,19.40
2015,08,10,13,09,19.40
2015,08,10,13,10,19.40
2015,08,10,13,11,19.40
2015,08,10,13,12,19.50
2015,08,10,13,13,19.50
2015,08,10,13,14,19.50
2015,08,10,13,15,19.60
2015,08,10,13,16,19.60
2015,08,10,13,17,19.60
2015,08,10,13,18,19.70
2015,08,10,13,19,19.70
2015,08,10,13,20,19.70
2015,08,10,13,21,19.80
2015,08,10,13,22,19.80
2015,08,10,13,23,19.80
2015,08,10,13,24,19.80
2015,08,10,13,25,19.80
2015,08,10,13,26,19.80
2015,08,10,13,27,19.90
2015,08,10,13,28,19.90
2015,08,10,13,29,19.90
2015,08,10,13,30,20.00
2015,08,10,13,31,20.00
2015,08,10,13,32,20.00
2015,08,10,13,33,20.10
2015,08,10,13,34,20.10
2015,08,10,13,35,20.10
2015,08,10,13,36,20.10
2015,08,10,13,37,20.10
2015,08,10,13,38,20.10
2015,08,10,13,39,20.10
2015,08,10,13,40,20.10
2015,08,10,13,41,20.20
2015,08,10,13,42,20.20
2015,08,10,13,43,20.20
2015,08,10,13,44,20.20
2015,08,10,13,45,20.20
2015,08,10,13,46,20.20
2015,08,10,13,47,20.20
2015,08,10,13,48,20.20
2015,08,10,13,49,20.20
2015,08,10,13,50,20.20
2015,08,10,13,51,20.20
2015,08,10,13,52,20.20
2015,08,10,13,53,20.20
2015,08,10,13,54,20.20
2015,08,10,13,55,20.20
2015,08,10,13,56,20.20
2015,08,10,13,57,20.30
2015,08,10,13,58,20.30
2015,08,10,13,59,20.40
2015,08,10,14,00,20.40
2015,08,10,14,01,20.40
2015,08,10,14,02,20.50
2015,08,10,14,03,20.50
2015,08,10,14,04,20.50
2015,08,10,14,05,20.50
2015,08,10,14,06,20.50
2015,08,10,14,07,20.50
2015,08,10,14,08,20.50
2015,08,10,14,09,20.50
2015,08,10,14,10,20.60
2015,08,10,14,11,20.60
2015,08,10,14,12,20.70
2015,08,10,14,13,20.70
2015,08,10,14,14,20.70
2015,08,10,14,15,20.70
2015,08,10,14,16,20.70
2015,08,10,14,17,20.70
2015,08,10,14,18,20.70
2015,08,10,14,19,20.70
2015,08,10,14,20,20.70
2015,08,10,14,21,20.70
2015,08,10,14,22,20.80
2015,08,10,14,23,20.80
2015,08,10,14,24,20.90
2015,08,10,14,25,20.90
2015,08,10,14,26,21.00
2015,08,10,14,27,21.10
2015,08,10,14,28,21.20
2015,08,10,14,29,21.30
2015,08,10,14,30,21.30
2015,08,10,14,31,21.40
2015,08,10,14,32,21.50
2015,08,10,14,33,21.50
2015,08,10,14,34,21.60
2015,08,10,14,35,21.60
2015,08,10,14,36,21.60
2015,08,10,14,37,21.60
2015,08,10,14,38,21.60
2015,08,10,14,39,21.60
2015,08,10,14,40,21.70
2015,08,10,14,41,21.70
2015,08,10,14,42,21.70
2015,08,10,14,43,21.80
2015,08,10,14,44,21.90
2015,08,10,14,45,21.90
2015,08,10,14,46,22.00
2015,08,10,14,47,22.20
2015,08,10,14,48,22.40
2015,08,10,14,49,22.60
2015,08,10,14,50,22.70
2015,08,10,14,51,22.70
2015,08,10,14,52,22.80
2015,08,10,14,53,22.90
2015,08,10,14,54,23.00
2015,08,10,14,55,23.00
2015,08,10,14,56,22.90
2015,08,10,14,57,22.80
2015,08,10,14,58,22.80
2015,08,10,14,59,22.80
2015,08,10,15,00,22.90
2015,08,10,15,01,23.00
2015,08,10,15,02,23.10
2015,08,10,15,03,23.20
2015,08,10,15,04,23.20
2015,08,10,15,05,23.20
2015,08,10,15,06,23.30
2015,08,10,15,07,23.20
2015,08,10,15,08,23.30
2015,08,10,15,09,23.20
2015,08,10,15,10,23.20
2015,08,10,15,11,23.20
2015,08,10,15,12,23.10
2015,08,10,15,13,23.10
2015,08,10,15,14,23.10
2015,08,10,15,15,23.20
2015,08,10,15,16,23.20
2015,08,10,15,17,23.20
2015,08,10,15,18,23.20
2015,08,10,15,19,23.20
2015,08,10,15,20,23.30
2015,08,10,15,21,23.30
2015,08,10,15,22,23.40
2015,08,10,15,23,23.40
2015,08,10,15,24,23.50
2015,08,10,15,25,23.50
2015,08,10,15,26,23.50
2015,08,10,15,27,23.60
2015,08,10,15,28,23.60
2015,08,10,15,29,23.70
2015,08,10,15,30,23.70
2015,08,10,15,31,23.60
2015,08,10,15,32,23.60
2015,08,10,15,33,23.50
2015,08,10,15,34,23.50
2015,08,10,15,35,23.60
2015,08,10,15,36,23.60
2015,08,10,15,37,23.60
2015,08,10,15,38,23.60
2015,08,10,15,39,23.60
2015,08,10,15,40,23.60
2015,08,10,15,41,23.60
2015,08,10,15,42,23.60
2015,08,10,15,43,23.70
2015,08,10,15,44,23.80
2015,08,10,15,45,23.80
2015,08,10,15,46,23.90
2015,08,10,15,47,23.90
2015,08,10,15,48,23.90
2015,08,10,15,49,23.90
2015,08,10,15,50,23.90
2015,08,10,15,51,23.90
2015,08,10,15,52,24.00
2015,08,10,15,53,24.00
2015,08,10,15,54,24.10
2015,08,10,15,55,24.10
2015,08,10,15,56,24.10
2015,08,10,15,57,24.10
2015,08,10,15,58,24.20
2015,08,10,15,59,24.20
2015,08,10,16,00,24.20
2015,08,10,16,01,24.20
2015,08,10,16,02,24.20
2015,08,10,16,03,24.30
2015,08,10,16,04,24.30
2015,08,10,16,05,24.40
2015,08,10,16,06,24.50
2015,08,10,16,07,24.50
2015,08,10,16,08,24.40
2015,08,10,16,09,24.40
2015,08,10,16,10,24.30
2015,08,10,16,11,24.30
2015,08,10,16,12,24.30
2015,08,10,16,13,24.30
2015,08,10,16,14,24.30
2015,08,10,16,15,24.30
2015,08,10,16,16,24.30
2015,08,10,16,17,24.30
2015,08,10,16,18,24.30
2015,08,10,16,19,24.30
2015,08,10,16,20,24.40
2015,08,10,16,21,24.40
2015,08,10,16,22,24.40
2015,08,10,16,23,24.40
2015,08,10,16,24,24.40
2015,08,10,16,25,24.50
2015,08,10,16,26,24.50
2015,08,10,16,27,24.50
2015,08,10,16,28,24.50
2015,08,10,16,29,24.60
2015,08,10,16,30,24.60
2015,08,10,16,31,24.60
2015,08,10,16,32,24.60
2015,08,10,16,33,24.50
2015,08,10,16,34,24.40
2015,08,10,16,35,24.30
2015,08,10,16,36,24.20
2015,08,10,16,37,24.00
2015,08,10,16,38,23.90
2015,08,10,16,39,23.80
2015,08,10,16,40,23.80
2015,08,10,16,41,23.70
2015,08,10,16,42,23.60
2015,08,10,16,43,23.50
2015,08,10,16,44,23.40
2015,08,10,16,45,23.40
2015,08,10,16,46,23.40
2015,08,10,16,47,23.30
2015,08,10,16,48,23.30
2015,08,10,16,49,23.30
2015,08,10,16,50,23.30
2015,08,10,16,51,23.30
2015,08,10,16,52,23.30
2015,08,10,16,53,23.20
2015,08,10,16,54,23.20
2015,08,10,16,55,23.20
2015,08,10,16,56,23.20
2015,08,10,16,57,23.20
2015,08,10,16,58,23.20
2015,08,10,16,59,23.20
2015,08,10,17,00,23.20
2015,08,10,17,01,23.20
2015,08,10,17,02,23.30
2015,08,10,17,03,23.30
2015,08,10,17,04,23.20
2015,08,10,17,05,23.20
2015,08,10,17,06,23.20
2015,08,10,17,07,23.20
2015,08,10,17,08,23.20
2015,08,10,17,09,23.20
2015,08,10,17,10,23.20
2015,08,10,17,11,23.20
2015,08,10,17,12,23.20
2015,08,10,17,13,23.20
2015,08,10,17,14,23.20
2015,08,10,17,15,23.20
2015,08,10,17,16,23.30
2015,08,10,17,17,23.30
2015,08,10,17,18,23.30
2015,08,10,17,19,23.30
2015,08,10,17,20,23.30
2015,08,10,17,21,23.30
2015,08,10,17,22,23.40
2015,08,10,17,23,23.40
2015,08,10,17,24,23.40
2015,08,10,17,25,23.40
2015,08,10,17,26,23.40